STARLINK-35936, 66620

Orbit data source: Space-Track

STARLINK-35936, 66620 is a payload satellite owned by SpaceX/Seattle (US) in LEO that was launched on Sun, 23 Nov 2025 UTC via an FALCON 9 launch vehicle from the Air Force Western Test Range (AFWTR). Payload-class satellites include a variety of spacecraft equipped with specific instruments for various scientific and technological missions. These include communications satellites like Starlink; space stations such as the ISS; scientific satellites like the Hubble; Earth observation satellites from companies like Planet Labs, Umbra, and HawkEye 360; GPS; miniature CubeSats for education and research; and military/defense satellites.

Loading next visibility...
Identifier
66620, 2025-271D
Orbit
LEO
Country
Flag of USUS
Related business
Manufacturer
SpaceX/Seattle
Mission
Operational Commercial Communications
Bus & Motor
STARLINK V2MO, Unknown motor
Mass
575 kg wet, ~530 kg dry
Launch date (UTC)
2025-11-23 (7 months ago)
Launch vehicle
FALCON 9
Launch site
Air Force Western Test Range (AFWTR)
Object type
Payload
Rocket body
Debris
Shape & HBR
Box + 2 Pan, 17.7 m
Radar Cross Section
36.964 m², Large (>1 m²)

Expand to show TLE details & history
Last TLE update: 3 days ago

TLE from 3 days ago
0 STARLINK-35936
1 66620U 25271D   26171.30625819  .00017305  00000-0  59472-3 0  9994
2 66620  53.1605  23.5814 0001104  88.5182 271.5945 15.30216900 33278
Epoch: 2026-06-20T07:21Z
TLE epoch observation values (Epoch: 2026-06-20T07:21:00.707Z)
Latitude
-0.00005°
Longitude
4.80564°
Altitude
476.043 km
Speed
7.629 km/s
True Right ascension
01h 34m 19s
True Declination
0° 00' 00"
Sunlit
Object was in daylight at epoch
Visualization orbit readout
Latitude
Unknown
Longitude
Unknown
Altitude
Unknown
Speed
Unknown
Apparent Right ascension
Unknown
Apparent Declination
Unknown
Sunlit
N/A
Visualization observer readout
Local Sidereal Time
07:32:03
Azimuth
Unknown
Elevation
Unknown
Doppler factor
Unknown
Orbital elements
Apogee altitude
476.178 km
Perigee altitude
474.664 km
Semi-major axis
6,853.558 km
Eccentricity
0.00011
Inclination
53.1605°
RAAN
23.5814°
Arg. of periapsis
88.5182°
True anomaly
271.58185°
Mean anomaly
271.5945°
Eccentric anomaly
271.58818°
Mean motion
3.82533 °/min
Orbital period
94.11 mins
BSTAR
0.00059472
Loading maneuver chart data...
Computing Atmospheric mass density...
Loading historical data...
Loading historical data...
Loading historical data...
Loading historical data...
Loading historical data...
Loading historical data...
Loading historical data...

Documentation

Showing up to 5 results
|